TimeAEST,TemperatureF,Dew PointF,Humidity,Sea Level PressureIn,VisibilityMPH,Wind Direction,Wind SpeedMPH,Gust SpeedMPH,PrecipitationIn,Events,Conditions,WindDirDegrees,DateUTC
12:00 AM,79,73,78,29.77,,South,6.9,,,,,190,2013-02-25 14:00:00
12:00 AM,78.8,73.4,83,29.77,6.2,South,6.9,-,N/A,,Partly Cloudy,190,2013-02-25 14:00:00
12:30 AM,78.8,73.4,83,29.74,6.2,SSE,5.8,-,N/A,,Partly Cloudy,160,2013-02-25 14:30:00
1:00 AM,77,74,86,29.75,,WNW,2.3,,,,,290,2013-02-25 15:00:00
1:00 AM,77.0,73.4,89,29.74,6.2,WNW,2.3,-,N/A,,Partly Cloudy,290,2013-02-25 15:00:00
1:30 AM,77.0,73.4,89,29.71,6.2,NW,1.2,-,N/A,,Partly Cloudy,310,2013-02-25 15:30:00
2:00 AM,75.2,73.4,94,29.71,6.2,Calm,Calm,-,N/A,,Partly Cloudy,0,2013-02-25 16:00:00
2:30 AM,75.2,73.4,94,29.71,6.2,West,2.3,-,N/A,,Partly Cloudy,280,2013-02-25 16:30:00
3:00 AM,75,74,94,29.71,,Calm,Calm,,,,,,2013-02-25 17:00:00
3:00 AM,75.2,73.4,94,29.71,6.2,Calm,Calm,-,N/A,,Partly Cloudy,0,2013-02-25 17:00:00
3:30 AM,75.2,73.4,94,29.71,6.2,Calm,Calm,-,N/A,,Partly Cloudy,0,2013-02-25 17:30:00
4:00 AM,75,74,94,29.71,,Calm,Calm,,,,,,2013-02-25 18:00:00
4:00 AM,75.2,73.4,94,29.68,6.2,Calm,Calm,-,N/A,,Partly Cloudy,0,2013-02-25 18:00:00
4:30 AM,75.2,73.4,94,29.71,6.2,Calm,Calm,-,N/A,,Partly Cloudy,0,2013-02-25 18:30:00
5:00 AM,75.2,73.4,94,29.71,6.2,South,3.5,-,N/A,,Partly Cloudy,180,2013-02-25 19:00:00
5:30 AM,75.2,73.4,94,29.71,6.2,South,6.9,-,N/A,,Partly Cloudy,170,2013-02-25 19:30:00
6:00 AM,74,73,95,29.72,19,NNW,2.3,,,,Partly Cloudy,330,2013-02-25 20:00:00
6:00 AM,75.2,73.4,94,29.71,6.2,NNW,2.3,-,N/A,,Partly Cloudy,330,2013-02-25 20:00:00
6:30 AM,73.4,73.4,100,29.71,6.2,Calm,Calm,-,N/A,,Partly Cloudy,0,2013-02-25 20:30:00
7:00 AM,77,73,83,29.74,,South,3.5,,,,,190,2013-02-25 21:00:00
7:00 AM,77.0,73.4,89,29.74,6.2,South,3.5,-,N/A,,Partly Cloudy,190,2013-02-25 21:00:00
7:30 AM,78.8,71.6,78,29.74,6.2,SSE,4.6,-,N/A,,Partly Cloudy,160,2013-02-25 21:30:00
8:00 AM,80.6,71.6,74,29.74,6.2,ESE,1.2,-,N/A,,Partly Cloudy,120,2013-02-25 22:00:00
8:30 AM,82.4,73.4,74,29.74,6.2,SE,4.6,-,N/A,,Partly Cloudy,140,2013-02-25 22:30:00
9:00 AM,84,71,57,29.76,19,ESE,5.8,,,,Partly Cloudy,120,2013-02-25 23:00:00
9:00 AM,84.2,71.6,66,29.74,6.2,ESE,5.8,-,N/A,,Partly Cloudy,120,2013-02-25 23:00:00
9:30 AM,86.0,71.6,62,29.74,6.2,SE,6.9,-,N/A,,Partly Cloudy,130,2013-02-25 23:30:00
10:00 AM,87,71,50,29.77,,SSE,4.6,,,,,150,2013-02-26 00:00:00
10:00 AM,86.0,71.6,62,29.74,6.2,SSE,4.6,-,N/A,,Partly Cloudy,150,2013-02-26 00:00:00
10:30 AM,87.8,71.6,58,29.74,6.2,NNE,3.5,-,N/A,,Partly Cloudy,30,2013-02-26 00:30:00
11:00 AM,87.8,69.8,55,29.74,6.2,ENE,9.2,-,N/A,,Partly Cloudy,60,2013-02-26 01:00:00
11:30 AM,87.8,71.6,58,29.74,6.2,NE,10.4,-,N/A,,Scattered Clouds,40,2013-02-26 01:30:00
12:00 PM,88,74,54,29.73,19,ENE,10.4,,,,Partly Cloudy,60,2013-02-26 02:00:00
12:00 PM,87.8,73.4,62,29.71,6.2,ENE,10.4,-,N/A,,Scattered Clouds,60,2013-02-26 02:00:00
12:30 PM,87.8,73.4,62,29.71,6.2,NE,10.4,-,N/A,,Scattered Clouds,40,2013-02-26 02:30:00
1:00 PM,87,74,56,29.71,,NE,11.5,,,,,50,2013-02-26 03:00:00
1:00 PM,87.8,73.4,62,29.68,6.2,NE,11.5,-,N/A,,Scattered Clouds,50,2013-02-26 03:00:00
1:30 PM,87.8,73.4,62,29.68,6.2,NE,10.4,-,N/A,,Scattered Clouds,50,2013-02-26 03:30:00
2:00 PM,87.8,73.4,62,29.68,6.2,NE,10.4,-,N/A,,Scattered Clouds,50,2013-02-26 04:00:00
2:30 PM,87.8,73.4,62,29.65,6.2,ENE,9.2,-,N/A,,Scattered Clouds,60,2013-02-26 04:30:00
3:00 PM,87,73,56,29.66,19,NE,9.2,,,,Scattered Clouds,50,2013-02-26 05:00:00
3:00 PM,86.0,73.4,66,29.65,6.2,NE,9.2,-,N/A,,Scattered Clouds,50,2013-02-26 05:00:00
3:30 PM,86.0,71.6,62,29.65,6.2,NE,9.2,-,N/A,,Mostly Cloudy,40,2013-02-26 05:30:00
4:00 PM,85,71,55,29.65,,NNE,8.1,,,,,20,2013-02-26 06:00:00
4:00 PM,86.0,71.6,62,29.62,6.2,NNE,8.1,-,N/A,,Mostly Cloudy,20,2013-02-26 06:00:00
4:30 PM,86.0,73.4,66,29.62,6.2,North,8.1,-,N/A,,Mostly Cloudy,10,2013-02-26 06:30:00
5:00 PM,86.0,73.4,66,29.62,6.2,NNE,8.1,-,N/A,,Mostly Cloudy,20,2013-02-26 07:00:00
5:30 PM,86.0,73.4,66,29.62,6.2,NE,5.8,-,N/A,,Scattered Clouds,50,2013-02-26 07:30:00
6:00 PM,85,72,57,29.66,19,East,5.8,,,,Partly Cloudy,80,2013-02-26 08:00:00
6:00 PM,84.2,71.6,66,29.65,6.2,East,5.8,-,N/A,,Scattered Clouds,80,2013-02-26 08:00:00
6:30 PM,84.2,71.6,66,29.65,6.2,East,4.6,-,N/A,,Scattered Clouds,80,2013-02-26 08:30:00
7:00 PM,83,74,66,29.67,,Calm,Calm,,,,,,2013-02-26 09:00:00
7:00 PM,82.4,73.4,74,29.65,6.2,Calm,Calm,-,N/A,,Scattered Clouds,0,2013-02-26 09:00:00
7:30 PM,82.4,73.4,74,29.65,6.2,North,5.8,-,N/A,,Scattered Clouds,350,2013-02-26 09:30:00
8:00 PM,82.4,73.4,74,29.65,6.2,West,5.8,-,N/A,,Mostly Cloudy,280,2013-02-26 10:00:00
8:30 PM,82.4,73.4,74,29.68,6.2,WNW,5.8,-,N/A,,Scattered Clouds,290,2013-02-26 10:30:00
9:00 PM,81,74,73,29.70,19,WNW,5.8,,,,Partly Cloudy,300,2013-02-26 11:00:00
9:00 PM,80.6,73.4,79,29.68,6.2,WNW,5.8,-,N/A,,Scattered Clouds,300,2013-02-26 11:00:00
9:30 PM,80.6,73.4,79,29.68,6.2,WNW,5.8,-,N/A,,Scattered Clouds,290,2013-02-26 11:30:00
10:00 PM,80,74,76,29.72,,Calm,Calm,,,,,,2013-02-26 12:00:00
10:00 PM,80.6,73.4,79,29.71,6.2,Calm,Calm,-,N/A,,Partly Cloudy,0,2013-02-26 12:00:00
10:30 PM,78.8,73.4,83,29.71,6.2,SSE,6.9,-,N/A,,Partly Cloudy,150,2013-02-26 12:30:00
11:00 PM,78.8,73.4,83,29.71,6.2,SSE,2.3,-,N/A,,Partly Cloudy,160,2013-02-26 13:00:00
11:30 PM,77.0,73.4,89,29.71,6.2,Calm,Calm,-,N/A,,Partly Cloudy,0,2013-02-26 13:30:00